TimeEST,TemperatureF,Dew PointF,Humidity,Sea Level PressureIn,VisibilityMPH,Wind Direction,Wind SpeedMPH,Gust SpeedMPH,PrecipitationIn,Events,Conditions,WindDirDegrees,DateUTC
12:53 AM,72.0,68.0,87,30.26,10.0,East,6.9,-,N/A,,Overcast,90,2013-01-10 05:53:00
1:53 AM,72.0,66.9,84,30.26,10.0,East,8.1,-,N/A,,Overcast,90,2013-01-10 06:53:00
2:53 AM,71.1,66.9,87,30.26,10.0,East,6.9,-,N/A,,Mostly Cloudy,80,2013-01-10 07:53:00
3:53 AM,69.1,66.9,93,30.25,9.0,East,9.2,-,N/A,,Mostly Cloudy,80,2013-01-10 08:53:00
4:53 AM,68.0,66.2,94,30.25,9.0,East,6.9,-,N/A,,Clear,80,2013-01-10 09:53:00
5:53 AM,66.9,66.0,97,30.26,6.0,ENE,5.8,-,N/A,,Clear,70,2013-01-10 10:53:00
6:53 AM,66.9,66.0,97,30.26,6.0,East,8.1,-,N/A,,Clear,90,2013-01-10 11:53:00
7:53 AM,68.0,66.0,93,30.27,6.0,East,6.9,-,N/A,,Clear,80,2013-01-10 12:53:00
8:53 AM,72.0,66.9,84,30.27,10.0,East,10.4,-,N/A,,Clear,100,2013-01-10 13:53:00
9:53 AM,75.9,66.0,71,30.28,10.0,ESE,13.8,-,N/A,,Clear,120,2013-01-10 14:53:00
10:53 AM,79.0,63.0,58,30.24,10.0,SE,16.1,24.2,N/A,,Clear,130,2013-01-10 15:53:00
11:53 AM,81.0,60.1,49,30.20,10.0,ESE,16.1,26.5,N/A,,Partly Cloudy,110,2013-01-10 16:53:00
12:53 PM,82.0,59.0,45,30.17,10.0,SE,13.8,24.2,N/A,,Scattered Clouds,140,2013-01-10 17:53:00
1:53 PM,80.1,59.0,48,30.18,10.0,SE,11.5,-,N/A,,Clear,130,2013-01-10 18:53:00
2:53 PM,80.1,60.1,50,30.19,10.0,SE,9.2,-,N/A,,Scattered Clouds,130,2013-01-10 19:53:00
3:53 PM,82.0,61.0,49,30.20,10.0,East,15.0,20.7,N/A,,Mostly Cloudy,100,2013-01-10 20:53:00
4:53 PM,80.1,60.1,50,30.22,10.0,East,9.2,-,N/A,,Mostly Cloudy,100,2013-01-10 21:53:00
5:53 PM,75.0,60.1,60,30.22,10.0,East,8.1,-,N/A,,Clear,90,2013-01-10 22:53:00
6:53 PM,75.0,60.1,60,30.22,10.0,ESE,12.7,-,N/A,,Clear,110,2013-01-10 23:53:00
7:53 PM,73.0,60.1,64,30.24,10.0,ESE,9.2,-,N/A,,Clear,110,2013-01-11 00:53:00
8:53 PM,70.0,61.0,73,30.25,10.0,East,6.9,-,N/A,,Clear,90,2013-01-11 01:53:00
9:53 PM,66.9,61.0,81,30.26,10.0,East,6.9,-,N/A,,Clear,90,2013-01-11 02:53:00
10:53 PM,64.9,61.0,87,30.26,10.0,East,6.9,-,N/A,,Clear,90,2013-01-11 03:53:00
11:53 PM,64.4,62.6,94,30.27,10.0,East,5.8,-,N/A,,Partly Cloudy,80,2013-01-11 04:53:00